Home   Weather   Piešťany   Past weeks

Flag for Slovakia Past Weather in Piešťany, Slovakia — Yesterday and Last 2 Weeks

Now
54 °F

Passing clouds.


Feels Like: 53 °F
Forecast: 49 / 71 °F
Wind: 3 mph from Southeast

Location: Piestany

Current Time: Sep 29, 2016 at 3:49:35 AM

Latest Report: Sep 29, 2016 at 3:00 AM


Visibility: N/A

Pressure: 30.27 "Hg

Humidity: 94%

Dew Point: 52 °F

Location of PiešťanyLocation

Past Weather in Piešťany — Graph

°F

Piešťany Temperature Yesterday

Maximum temperature yesterday: 70 °F (at 2:00 PM)
Minimum temperature yesterday: 43 °F (at 7:00 AM)
Average temperature yesterday: 56 °F

High & Low Weather Summary for the Past Weeks

 TemperatureHumidityPressure
High84 °F (Sep 14, 3:00 PM)100% (Sep 14, 3:30 AM)30.39 "Hg (Sep 14, 3:30 AM)
Low41 °F (Sep 23, 12:00 AM)32% (Sep 14, 5:00 PM)29.77 "Hg (Sep 19, 2:30 PM)
Average59 °F76%30.08 "Hg
* Reported Sep 14 3:00 AM — Sep 29 3:00 AM, Piešťany, Weather by CustomWeather, © 2016

Note: Actual official high and low records may vary slightly from our data, if they occured in-between our weather recording intervals... More about our weather records

Advertising

Piešťany Weather History for the Previous 24 Hours

Scroll right to see more
 ConditionsComfort  
Time TempWeatherWind HumidityBarometerVisibility
3:00 AM
Thu, Sep 29
54 °FPassing clouds.3 mph94%30.27 "HgN/A
2:30 AM55 °FOvercast.5 mph88%30.27 "HgN/A
2:00 AM54 °FPassing clouds.2 mph88%30.27 "HgN/A
1:30 AM54 °FPassing clouds.3 mph88%30.27 "HgN/A
1:00 AM55 °FPassing clouds.2 mph82%30.27 "HgN/A
12:30 AM54 °FOvercast.2 mph88%30.27 "HgN/A
12:00 AM52 °FPassing clouds.2 mph94%30.27 "HgN/A
11:30 PM
Wed, Sep 28
55 °FCool.1 mph88%30.27 "HgN/A
11:00 PM54 °FPassing clouds.2 mph88%30.27 "HgN/A
10:30 PM55 °FMostly cloudy.3 mph82%30.27 "HgN/A
10:00 PM57 °FClear.5 mph82%30.27 "Hg10 mi
9:30 PM55 °FClear.5 mph88%30.27 "Hg10 mi
9:00 PM57 °FClear.2 mph82%30.27 "Hg10 mi
8:30 PM57 °FClear.1 mph82%30.27 "Hg10 mi
8:00 PM57 °FClear.2 mph77%30.27 "Hg10 mi
7:30 PM61 °FClear.6 mph72%30.27 "Hg10 mi
7:00 PM61 °FClear.6 mph77%30.27 "Hg10 mi
6:30 PM64 °FSunny.6 mph68%30.27 "Hg10 mi
6:00 PM66 °FSunny.2 mph64%30.27 "Hg10 mi
5:30 PM68 °FSunny.5 mph56%30.27 "Hg10 mi
5:00 PM68 °FSunny.6 mph56%30.27 "Hg10 mi
4:30 PM70 °FSunny.7 mph46%30.30 "Hg10 mi
4:00 PM70 °FPassing clouds.7 mph53%30.30 "HgN/A
3:30 PM70 °FPassing clouds.8 mph53%30.30 "HgN/A
3:00 PM70 °FPassing clouds.7 mph53%30.30 "HgN/A
2:30 PM70 °FPassing clouds.8 mph53%30.30 "HgN/A
2:00 PM70 °FPassing clouds.7 mph57%30.33 "HgN/A
1:30 PM68 °FPassing clouds.5 mph56%30.33 "HgN/A
1:00 PM64 °FPassing clouds.5 mph64%30.33 "HgN/A
12:30 PM64 °FPassing clouds.5 mph60%30.36 "HgN/A
12:00 PM63 °FSunny.2 mph64%30.36 "Hg10 mi
11:30 AM63 °FSunny.2 mph64%30.36 "Hg10 mi
11:00 AM61 °FSunny.1 mph63%30.39 "Hg10 mi
10:30 AM59 °FSunny.1 mph72%30.39 "Hg10 mi
10:00 AM55 °FSunny.1 mph82%30.39 "Hg10 mi
9:30 AM54 °FPassing clouds.3 mph82%30.39 "HgN/A
9:00 AM50 °FPassing clouds.3 mph94%30.39 "HgN/A
8:30 AM48 °FPassing clouds.3 mph94%30.36 "HgN/A
8:00 AM46 °FClear.2 mph93%30.36 "Hg5 mi
7:30 AM45 °FClear.6 mph93%30.36 "Hg4 mi
7:00 AM43 °FFog.3 mph93%30.36 "Hg3 mi
6:30 AM45 °FFog.5 mph100%30.36 "Hg3 mi
6:00 AM45 °FClear.5 mph93%30.36 "Hg4 mi
5:30 AM45 °FQuite cool.5 mph93%30.36 "Hg4 mi
5:00 AM45 °FQuite cool.5 mph100%30.36 "Hg4 mi
4:30 AM46 °FCool.3 mph93%30.36 "Hg4 mi
4:00 AM45 °FQuite cool.7 mph93%30.36 "Hg4 mi
3:30 AM45 °FQuite cool.5 mph100%30.36 "Hg4 mi
3:00 AM46 °FCool.6 mph93%30.36 "Hg5 mi
Weather by CustomWeather, © 2016

See weather overviewHow to use our weather pages